Location: Batang Balui
(2.7000°N, 113.7833°E)
Time: 11:58:34
(UTC+00:00)

VELOX 1 - Visible Passes

Search period start: 02 April 2023 00:00
Search period end: 12 April 2023 00:00
Orbit: 617 x 633 km, 98.4° (Epoch: 02 April)

Date Brightness Start Highest point End Pass type
(mag) Time Alt. Az. Time Alt. Az. Time Alt. Az.
02 Apr ? 11:00:22 10° NNW 11:04:09 30° WNW 11:07:58 10° SW visible
02 Apr ? 21:36:22 10° ESE 21:39:13 17° ENE 21:42:03 10° NE visible
03 Apr ? 11:20:11 10° NW 11:22:59 17° WNW 11:25:48 10° WSW visible
03 Apr ? 21:54:12 10° SE 21:58:03 30° ENE 22:01:52 10° NNE visible
07 Apr ? 10:58:27 10° NNW 11:02:20 34° WNW 11:06:17 10° SW visible
07 Apr ? 21:34:48 10° ESE 21:37:23 15° ENE 21:39:57 10° NE visible
08 Apr ? 11:18:05 10° NNW 11:21:06 19° WNW 11:24:10 10° WSW visible
08 Apr ? 21:52:26 10° SE 21:56:09 28° ENE 21:59:50 10° NNE visible
09 Apr ? 11:39:32 10° WNW 11:39:52 10° WNW 11:40:11 10° W visible
